Theta_e
316 316 315 315 316 316 318 317 317 316 317 317 318 318 318 318 318 318 318 318 318 317 316 316 317 317 317 316 314 315 314 313 314 318 324 325 320 325 328 330 331 331 328 323 322 327 334 338 342 342 341 343 341 341 339 340 341 340 341 335 332 333 328 329 331 327 326 337 344 341 344 347 349 349 347 348 350 352 353 353 351 348 347 348 352 355 355 355
314 313 313 313 313 315 316 317 316 317 317 318 318 318 317 318 318 318 319 318 318 318 317 317 316 317 316 315 315 315 314 317 323 327 326 318 320 325 327 329 328 328 326 324 322 328 339 341 341 340 341 341 337 336 337 340 341 342 341 335 339 337 325 326 329 327 330 341 346 344 344 345 347 347 346 350 352 353 355 354 352 351 350 350 353 354 354 354
312 311 311 310 312 313 315 316 316 317 317 318 318 318 318 318 319 319 319 318 318 318 318 317 317 317 315 315 318 315 317 325 334 336 325 318 320 320 323 326 324 326 324 323 324 329 336 337 336 339 342 337 333 333 333 338 338 336 335 334 340 334 324 329 329 327 331 341 347 346 345 346 347 347 346 350 352 352 356 355 355 354 353 353 352 353 354 353
311 310 310 309 311 312 314 315 316 316 317 318 318 318 319 320 320 319 319 319 319 318 318 317 316 316 315 316 316 315 322 332 334 328 325 326 324 319 320 323 325 327 324 321 323 326 329 333 336 340 340 334 334 330 330 337 335 329 331 330 329 327 327 329 328 331 335 342 348 347 349 349 348 346 346 350 354 354 354 354 354 354 354 353 352 352 352 352
310 309 309 309 310 312 314 315 315 315 316 317 318 318 320 320 321 320 319 319 319 318 318 317 316 316 316 316 315 320 327 328 324 332 334 334 328 321 320 320 326 329 326 323 323 326 331 336 340 342 336 332 334 331 331 333 330 328 327 329 327 326 328 326 334 341 342 344 347 348 350 350 349 349 347 349 356 356 350 351 353 352 352 352 351 350 350 352
309 308 309 309 309 311 313 315 315 315 315 317 318 319 320 321 320 320 319 318 319 318 317 316 316 315 315 316 315 322 330 322 325 335 333 333 328 324 321 320 326 329 328 324 326 334 340 343 343 343 335 330 331 330 332 329 327 327 326 327 327 327 328 329 338 344 345 345 346 349 349 349 350 351 351 355 359 354 347 350 352 350 351 350 350 349 350 353
309 308 308 308 309 311 313 314 315 315 315 317 318 319 320 320 320 320 319 318 319 317 316 315 314 314 316 317 316 323 334 330 326 327 329 332 328 326 324 324 328 329 327 325 334 343 346 345 346 345 336 328 327 327 329 326 326 329 327 326 325 328 331 332 339 343 345 346 346 348 350 351 353 352 355 361 363 353 346 349 351 351 351 350 349 350 351 353
309 308 308 308 309 311 313 315 315 315 315 316 318 318 319 320 320 320 319 318 318 316 314 313 313 315 317 322 326 329 331 329 321 320 327 331 329 330 328 328 329 328 324 327 338 345 344 344 344 340 332 327 326 325 324 324 327 327 327 327 325 329 331 334 340 343 345 345 346 350 352 353 353 353 357 362 363 353 347 349 350 351 351 350 350 352 354 354
310 309 309 309 310 311 313 315 315 315 315 316 317 317 318 320 319 319 318 318 317 315 313 313 313 315 318 326 336 334 330 325 322 323 326 329 330 331 330 329 327 325 326 329 334 338 341 342 339 332 327 327 326 325 325 323 325 327 328 329 327 330 329 333 338 339 343 345 351 355 355 354 352 356 359 360 360 353 349 350 350 350 350 350 351 352 356 357
310 310 309 311 311 312 314 315 316 316 316 316 316 317 317 319 319 319 318 317 317 314 313 314 314 315 320 329 334 332 332 326 326 326 325 328 328 328 328 327 325 325 330 333 335 336 338 338 336 331 326 326 326 325 326 323 326 327 329 330 330 331 331 335 339 338 341 344 351 355 355 356 354 360 363 358 358 356 352 352 351 352 352 350 350 353 356 355
310 310 311 312 313 314 315 316 316 316 316 315 316 317 318 319 319 318 317 317 316 314 313 314 315 319 325 333 334 330 332 326 325 327 324 327 326 326 325 327 328 328 332 336 334 333 335 335 332 330 327 326 327 326 326 325 327 328 329 331 331 332 331 335 339 339 340 342 347 351 355 358 357 361 364 359 358 357 357 359 361 363 365 360 354 355 356 353
311 311 312 313 314 316 316 317 317 317 317 316 317 317 318 320 318 318 317 316 316 314 313 313 315 323 330 338 339 334 330 328 327 325 326 327 326 325 327 329 330 328 333 336 333 331 331 331 327 326 327 326 326 326 326 327 327 329 330 331 330 333 334 335 338 338 340 340 342 347 351 357 363 362 361 359 357 359 360 363 365 366 368 368 363 361 362 354
311 311 313 314 316 318 317 318 319 318 318 318 318 319 320 320 318 317 317 316 316 314 315 314 316 325 334 346 344 333 330 329 328 327 326 328 326 326 327 329 331 330 333 333 331 331 330 329 324 326 327 325 326 325 326 327 328 329 329 331 331 332 334 335 334 338 341 341 341 346 344 350 363 361 359 358 357 360 362 364 364 365 364 366 365 366 370 359
312 312 314 316 317 319 319 319 319 319 320 320 321 321 323 322 318 317 317 317 316 314 316 315 318 329 339 348 340 327 330 330 327 330 327 330 330 327 326 329 331 331 332 332 332 331 331 327 325 326 326 326 327 327 327 327 328 330 327 330 333 326 330 337 334 337 341 341 342 345 338 346 359 357 358 357 357 361 364 365 365 365 364 363 365 366 370 366
313 314 315 318 319 320 321 321 321 321 321 322 322 323 325 323 318 317 318 318 318 315 315 316 320 331 343 343 333 326 330 330 329 331 327 331 332 329 330 329 329 331 331 332 332 332 329 326 325 327 327 327 329 327 330 328 328 332 323 321 328 324 329 338 332 336 342 341 342 343 337 345 355 355 357 357 357 362 364 366 366 365 364 363 365 364 364 366
314 315 317 320 320 322 323 322 322 321 322 323 323 326 327 322 317 318 319 319 321 315 317 324 324 329 342 337 327 326 326 328 329 330 328 331 330 331 331 329 331 330 330 331 330 328 326 326 329 328 328 328 329 328 330 328 330 337 325 316 322 322 327 332 331 338 343 343 345 344 341 345 349 351 353 355 357 361 363 365 366 365 365 364 365 362 363 363
314 316 318 320 321 323 324 324 322 322 323 323 325 329 329 324 318 319 320 319 321 318 318 328 326 327 339 333 325 328 326 327 327 328 331 330 329 332 330 328 330 328 329 329 327 326 326 327 328 329 331 329 330 329 325 320 321 329 327 319 321 326 326 325 329 339 342 344 346 344 345 346 348 348 350 354 357 359 364 364 365 366 365 365 364 363 363 362
313 316 318 320 323 325 325 324 323 323 324 324 327 331 329 325 320 320 322 322 325 327 325 327 328 327 331 332 332 328 326 326 325 328 329 328 329 329 329 328 327 328 327 326 327 327 326 328 329 330 333 330 330 328 320 318 319 321 319 316 319 326 326 324 329 339 342 343 344 343 347 349 350 352 351 353 358 362 364 363 363 365 364 364 364 363 362 363
310 313 316 319 322 325 325 325 324 324 325 326 328 332 331 327 323 322 325 328 333 341 339 336 337 330 323 332 335 326 327 329 325 327 327 329 328 327 328 326 327 327 325 327 328 327 326 330 331 328 329 331 331 328 323 324 324 322 320 319 319 321 323 327 333 339 343 342 345 346 347 352 354 354 354 355 359 362 362 363 362 361 360 361 361 361 363 366
308 310 313 318 322 324 326 326 325 325 325 328 328 331 333 331 332 331 329 333 337 337 337 335 338 336 329 330 329 326 329 328 326 328 326 328 327 327 328 327 327 327 327 329 327 327 327 327 328 327 329 332 331 329 327 328 326 324 322 322 323 321 321 328 335 338 341 341 343 347 347 352 354 353 355 354 356 359 360 360 359 358 359 358 359 361 364 365
307 308 311 315 320 324 326 326 326 325 326 328 326 328 330 329 333 334 330 334 333 330 332 332 332 335 334 328 324 326 328 325 325 326 326 328 327 327 328 327 328 327 327 328 326 329 328 325 327 330 330 329 328 330 328 327 326 324 324 322 322 321 323 329 335 335 339 341 341 346 347 348 350 352 354 354 354 357 357 358 358 358 359 358 359 361 362 361
306 308 309 312 317 323 326 325 326 327 327 328 326 324 326 326 327 328 328 331 329 327 329 330 329 332 331 325 325 326 325 325 325 326 326 327 325 327 328 328 328 329 327 326 326 326 324 324 328 328 328 327 327 328 328 328 328 325 324 322 321 324 328 331 333 334 337 340 342 345 346 346 348 352 353 353 355 357 356 356 357 358 359 359 361 363 362 360
306 308 309 310 314 321 325 326 326 328 328 328 326 323 324 325 328 328 328 332 333 331 330 332 330 328 328 325 325 325 325 326 326 325 326 324 327 327 328 327 327 329 327 326 327 323 320 324 328 328 326 326 328 328 332 330 326 325 325 322 319 323 326 323 327 334 337 339 342 344 345 346 350 354 355 354 354 356 356 355 356 356 359 360 359 361 362 361
306 307 308 310 311 319 325 325 327 328 328 328 326 324 325 326 328 328 329 333 334 332 332 332 329 325 326 325 324 326 324 325 326 326 326 325 328 326 327 329 327 328 326 326 327 325 325 328 329 330 327 329 329 328 332 329 323 325 326 323 319 322 324 322 325 333 336 337 342 344 341 342 351 355 357 357 356 357 357 358 359 357 356 357 356 356 357 357
306 306 308 309 309 316 323 325 327 328 328 327 326 327 326 326 329 328 331 336 336 336 331 327 325 325 326 325 325 325 324 325 326 326 326 326 327 327 328 327 326 327 326 325 326 327 331 330 330 331 330 329 327 327 328 326 321 321 324 326 324 323 324 324 324 328 329 330 336 342 336 335 347 356 359 360 361 360 359 360 360 358 356 355 356 354 353 352
306 307 307 308 309 312 322 327 326 327 328 326 327 329 326 328 330 328 334 335 331 335 328 323 325 325 326 325 324 324 324 326 327 325 326 325 325 326 326 327 328 327 327 327 330 332 331 330 330 330 329 329 330 328 326 328 324 317 322 327 325 325 325 323 323 322 321 326 335 340 338 334 338 349 358 359 361 361 358 358 357 357 355 352 352 352 351 350
306 307 306 308 309 309 320 329 326 327 330 328 329 329 327 330 330 328 335 332 329 333 326 323 325 324 325 324 324 326 324 327 328 325 325 327 326 326 326 328 328 326 328 330 325 328 330 328 330 330 332 331 331 326 327 333 325 317 326 328 327 328 324 323 322 317 319 325 331 338 342 337 334 343 354 356 358 359 357 357 355 353 352 350 349 349 349 348
306 306 306 308 308 309 318 324 323 327 330 329 329 328 330 332 330 334 337 329 332 331 324 323 324 324 325 325 326 327 326 328 327 324 327 326 325 326 325 327 327 326 330 327 319 325 331 327 328 332 332 330 329 327 328 332 325 325 331 327 328 327 324 329 321 320 327 321 318 330 340 338 334 342 354 355 355 357 357 356 354 352 350 349 347 346 346 347
305 306 306 307 308 311 316 317 319 327 329 329 329 329 332 331 332 338 334 328 330 324 324 324 323 324 325 325 324 324 327 327 326 328 327 326 325 327 327 327 328 326 327 327 325 330 330 329 331 331 330 329 329 329 329 330 326 328 330 328 331 330 331 332 319 324 333 321 316 325 334 340 337 341 351 352 350 354 356 354 353 352 348 347 346 346 347 348
306 306 306 307 308 310 312 312 318 327 328 327 329 329 331 335 340 332 321 323 326 323 324 324 323 327 326 325 325 325 326 325 328 328 325 327 326 326 327 329 327 327 330 330 331 332 329 332 336 333 331 329 329 329 328 328 329 328 332 334 334 336 341 343 343 342 329 321 325 325 329 340 338 340 347 348 350 352 353 353 352 349 346 345 345 345 347 349
306 307 307 307 308 309 311 317 322 326 326 328 331 331 333 344 348 329 320 326 327 325 324 324 326 326 325 326 325 325 325 325 328 325 326 327 326 324 326 328 327 327 332 332 329 331 329 329 331 333 336 332 328 331 330 329 329 329 337 333 325 329 339 343 349 341 320 319 329 326 327 333 333 339 346 347 352 351 350 352 350 346 344 345 345 344 347 348
306 307 307 308 308 308 314 320 321 321 326 330 330 334 342 344 336 328 331 329 323 325 325 324 325 326 324 326 326 325 326 326 327 326 327 327 326 329 326 328 330 321 320 326 324 325 329 328 329 331 335 334 328 329 330 332 334 333 338 334 326 325 330 333 335 327 320 326 327 324 330 331 334 345 347 346 351 349 349 349 346 345 344 346 346 346 346 345
307 307 308 309 310 310 313 317 319 323 329 330 331 342 349 337 332 336 337 328 323 327 327 325 326 326 325 325 325 327 324 325 327 326 327 326 327 328 325 328 332 321 320 323 318 317 324 327 330 328 329 332 329 327 324 326 332 327 326 329 329 327 323 324 327 322 323 328 324 326 334 332 340 352 348 348 349 347 348 345 343 344 345 347 346 345 345 343
307 308 309 310 311 311 314 318 323 328 328 328 337 346 339 331 339 343 336 331 331 329 327 328 325 325 325 324 325 326 323 324 327 326 326 326 324 325 326 325 326 327 327 323 318 318 317 321 331 328 326 329 331 331 328 326 330 327 327 334 331 329 324 320 323 322 321 325 323 329 336 334 342 351 348 348 348 345 346 343 345 345 343 345 343 343 344 344
308 309 309 311 311 313 317 321 329 333 328 332 346 347 333 331 337 335 332 334 333 329 329 328 326 325 323 325 327 327 324 323 325 326 326 326 323 326 328 325 324 328 326 320 320 323 316 318 334 332 327 331 329 331 334 331 331 331 333 333 324 330 336 327 326 328 323 322 322 329 337 340 347 352 347 346 344 344 345 343 344 343 341 343 342 343 344 344
307 309 312 313 313 315 317 323 332 333 331 339 344 339 336 338 334 332 336 336 328 330 329 326 327 322 317 323 327 327 326 326 326 325 324 325 326 325 327 327 327 327 328 327 324 325 318 319 332 332 327 333 331 332 333 327 331 332 327 325 324 334 343 326 322 333 331 321 320 332 341 343 347 350 346 345 345 344 344 342 342 341 343 344 344 344 342 343
307 313 318 318 316 315 315 323 330 332 333 338 339 340 343 339 333 334 337 333 327 331 327 322 325 321 314 318 324 326 327 326 324 324 323 324 324 325 327 329 329 326 333 334 326 331 327 320 329 334 327 330 333 333 334 330 335 331 321 330 332 330 340 333 323 331 332 322 323 335 342 342 343 346 346 347 347 345 344 343 343 343 344 344 343 343 343 343
312 319 324 324 322 322 324 327 329 332 334 334 342 353 347 333 332 333 331 330 329 331 328 321 322 324 318 315 321 328 325 321 322 323 323 321 324 329 329 328 330 327 330 334 328 332 332 320 327 338 330 331 336 334 331 331 338 331 324 336 330 317 324 331 326 325 324 320 322 330 337 340 341 344 345 347 347 347 346 344 344 344 343 344 342 343 343 343
318 325 330 329 328 329 330 328 331 336 337 336 344 350 341 331 334 331 330 332 330 328 328 324 323 326 325 320 321 327 325 321 322 323 321 320 324 331 332 330 331 328 330 336 331 331 339 327 322 333 332 332 335 333 326 327 333 335 331 335 335 328 326 326 328 326 320 320 322 324 332 340 348 349 346 346 347 345 345 343 343 342 343 343 341 342 342 343
321 324 324 327 329 331 330 327 333 338 337 342 347 342 332 331 331 329 332 332 329 327 328 327 326 326 328 327 326 327 328 326 325 323 323 323 324 327 330 331 331 330 331 334 333 334 342 330 320 330 336 329 328 328 329 330 330 331 330 328 328 332 330 325 327 327 325 326 327 326 330 341 360 363 347 345 345 342 340 341 342 342 341 341 340 340 342 344
323 323 322 328 327 328 329 330 335 339 338 341 342 333 330 332 330 330 331 329 329 329 327 328 327 327 328 328 328 328 329 329 328 326 324 324 325 327 329 330 330 331 333 334 335 332 335 334 327 327 325 321 327 335 334 334 333 332 332 327 324 328 328 322 321 326 331 331 330 330 327 338 363 366 348 346 344 339 338 338 340 341 340 341 341 341 342 346
328 327 324 326 322 324 327 330 336 337 335 337 335 329 331 335 332 330 330 330 330 329 328 329 328 328 329 328 329 329 329 330 329 328 327 328 331 331 330 331 331 333 337 336 332 335 348 347 329 325 331 329 328 334 330 328 336 337 333 334 331 331 327 319 318 325 326 324 330 332 325 336 362 361 347 346 343 337 336 337 338 339 340 341 340 340 343 346
325 325 323 316 316 320 321 327 335 334 329 329 329 327 329 332 330 329 330 329 329 329 328 329 327 328 328 328 328 328 328 329 329 330 331 332 333 330 331 334 336 336 344 342 334 337 352 347 329 331 354 353 336 339 337 336 339 332 333 339 331 329 328 326 332 337 324 318 326 325 320 338 369 365 347 342 341 338 335 336 337 338 339 340 340 342 345 345
316 317 321 317 317 319 319 325 333 335 332 327 323 323 324 327 328 328 331 329 328 329 328 328 327 327 327 328 327 328 329 328 328 331 332 334 333 331 333 342 343 341 344 347 343 332 330 339 336 330 337 341 337 337 340 346 346 335 335 339 332 331 331 328 337 338 325 323 329 324 322 342 367 362 348 342 340 339 337 336 337 339 340 340 341 345 347 348
318 321 324 324 322 319 320 326 327 329 330 325 321 321 322 326 328 329 330 330 330 329 328 328 327 326 328 328 327 330 331 328 328 332 333 332 334 333 335 341 342 343 350 357 361 350 337 347 352 333 323 323 325 328 336 346 346 337 336 336 333 331 327 326 330 324 321 328 331 328 331 343 356 354 348 347 343 339 341 338 338 340 340 341 344 346 347 349
324 331 332 329 327 321 320 325 321 321 324 322 324 327 324 325 329 329 330 330 330 329 328 329 329 327 329 329 329 332 331 330 329 333 336 335 332 332 336 341 340 347 364 367 365 365 353 353 366 355 333 324 330 344 355 349 336 329 330 331 331 330 328 334 331 322 327 333 331 339 346 341 346 351 347 347 344 340 342 342 340 342 341 343 347 347 348 349
326 333 332 330 332 331 329 330 325 324 325 323 327 331 327 325 325 326 330 330 329 330 329 329 330 328 328 329 329 329 331 334 333 331 333 335 335 330 334 341 345 357 371 360 356 369 350 332 348 360 347 340 351 358 353 339 330 327 327 328 331 331 330 331 327 326 336 330 325 350 360 337 339 352 346 345 344 340 342 342 340 343 343 343 346 347 348 351
328 331 328 325 331 335 335 334 329 325 323 322 329 333 328 327 327 325 330 331 329 329 329 331 332 328 329 329 326 329 334 337 337 336 335 336 337 333 331 336 343 356 357 340 348 370 351 328 333 339 337 344 347 340 336 332 331 330 329 328 331 331 328 328 330 336 340 326 322 344 354 338 339 348 344 342 342 338 340 341 339 340 342 342 345 349 350 352
327 327 325 323 326 329 329 331 329 325 322 325 336 339 331 329 328 326 328 330 331 330 328 330 333 330 330 329 328 334 339 333 332 337 339 338 338 337 337 335 336 343 341 330 339 351 343 339 342 330 326 337 338 332 333 331 327 328 329 330 331 330 330 329 332 338 338 331 332 340 344 343 343 344 344 343 340 338 340 340 339 340 341 342 346 349 349 350
323 323 322 321 324 327 329 329 328 326 324 325 332 334 329 327 328 327 327 326 329 331 328 328 331 330 329 330 329 334 337 333 331 337 344 343 340 342 344 340 336 336 333 333 339 336 329 339 353 342 331 337 342 336 333 332 330 327 327 331 331 330 331 330 331 335 333 332 339 340 339 346 350 347 347 343 340 341 341 340 341 340 342 344 345 346 346 348
318 319 320 321 326 331 330 328 326 326 327 327 327 327 325 325 325 323 323 325 326 327 327 326 330 333 334 336 335 333 333 333 332 334 342 346 345 346 346 340 337 338 335 335 337 334 331 336 349 345 330 331 340 333 329 334 330 324 326 334 332 329 330 330 333 336 331 331 336 331 333 349 352 342 340 339 338 340 341 343 344 342 342 345 345 344 344 346
314 316 318 320 328 334 330 327 326 325 327 326 325 326 325 325 326 323 325 332 328 324 327 325 329 340 344 339 336 332 331 333 333 331 334 338 337 339 340 337 340 343 343 343 338 340 345 344 343 339 329 332 341 332 328 332 327 325 337 340 331 331 332 331 336 339 338 343 342 333 340 355 349 338 338 340 340 342 344 344 342 341 342 342 343 345 343 345
Wind_Speed
26 27 28 28 28 28 28 27 25 22 19 17 16 16 16 17 18 18 18 18 17 17 16 16 16 16 15 13 12 11 13 12 9 5 7 10 9 9 8 5 5 7 7 8 9 9 9 7 8 11 6 2 2 3 3 3 1 3 2 0 2 2 2 2 3 3 4 7 7 8 13 17 11 6 6 8 11 10 8 8 8 10 10 13 18 29 32 32
27 28 28 29 29 29 28 27 25 21 18 17 16 17 17 18 19 19 19 18 18 17 16 16 15 15 12 10 9 9 11 10 9 10 16 15 10 11 11 9 8 9 9 8 8 5 4 5 6 9 6 2 3 3 2 2 2 3 2 1 3 4 2 2 4 3 5 9 9 10 12 13 9 6 4 6 8 9 11 8 11 14 12 15 21 26 27 27
28 28 29 29 29 29 29 27 24 20 18 17 17 17 18 19 20 21 20 19 17 16 15 14 13 11 8 7 6 7 9 7 5 9 15 12 13 16 13 12 11 9 9 8 7 5 6 8 8 7 5 4 3 1 3 2 1 3 3 2 5 6 2 2 1 4 8 11 12 10 11 12 7 4 4 8 8 8 11 8 10 13 13 14 16 20 23 21
28 29 29 30 30 30 29 27 24 21 18 18 18 18 19 20 21 21 20 18 17 15 14 12 9 6 4 4 4 5 6 5 3 6 6 7 11 16 17 15 11 9 10 8 8 10 11 11 9 4 2 4 4 3 2 3 2 2 4 4 5 3 1 5 4 9 12 12 12 10 13 13 7 6 6 9 9 5 6 10 13 15 15 15 14 17 20 18
28 29 30 30 31 31 30 27 24 21 19 18 18 19 19 20 21 21 19 17 15 13 10 7 5 3 2 1 2 4 3 2 4 5 4 6 7 13 18 16 11 10 10 9 10 10 9 7 4 2 1 3 4 4 3 4 3 3 1 6 5 4 4 3 5 15 13 12 13 11 12 9 6 8 6 8 7 3 6 10 15 17 16 17 16 16 16 16
28 29 30 31 32 31 30 28 25 22 19 18 18 19 19 20 20 20 18 15 13 10 7 4 2 1 1 2 2 2 2 1 5 5 5 5 2 10 15 14 12 10 10 9 8 6 6 4 4 4 2 4 4 4 6 5 2 4 2 1 3 5 6 1 7 15 11 13 12 9 8 8 10 9 7 8 4 4 9 12 15 16 17 19 17 15 14 14
29 30 31 32 32 32 31 29 25 22 20 19 18 19 19 19 19 18 15 12 10 8 5 3 2 1 4 5 4 3 3 4 8 5 4 2 4 9 11 12 11 9 10 7 4 2 3 4 5 3 2 4 4 5 6 4 2 6 1 2 2 4 7 5 9 12 12 13 10 10 9 10 13 8 6 9 6 6 13 12 13 14 17 19 15 13 13 14
29 30 31 32 33 33 32 30 26 23 21 19 18 18 18 18 18 16 13 10 8 6 4 3 0 4 7 6 3 3 1 7 9 6 6 4 6 9 11 11 10 10 9 8 6 1 3 3 4 3 2 4 2 3 3 4 5 5 1 1 1 3 6 8 10 12 13 12 10 13 12 11 13 9 7 9 8 9 15 12 13 13 14 15 13 13 12 12
30 31 32 33 34 34 33 31 27 23 21 19 18 17 17 17 15 13 10 8 6 5 4 2 1 7 8 4 2 2 3 8 7 6 7 8 8 9 11 10 11 12 9 9 7 2 3 2 3 3 4 4 2 5 5 5 3 2 3 3 3 3 6 8 9 11 10 9 12 16 13 10 11 9 8 8 7 9 13 13 13 13 13 12 11 12 12 12
30 31 32 33 34 35 34 32 28 24 21 19 18 17 16 15 13 10 8 6 5 4 4 1 3 8 6 2 3 1 5 6 4 6 8 9 9 9 11 10 12 14 7 6 4 2 2 4 5 7 7 4 4 6 5 2 3 4 4 3 5 5 6 6 7 9 7 9 16 16 11 6 4 6 7 6 8 11 12 11 10 10 10 9 9 11 12 12
30 31 32 33 35 35 35 32 28 24 21 19 18 16 15 14 11 8 6 4 3 4 3 2 5 7 4 1 3 3 5 5 4 6 7 8 9 9 12 11 10 12 8 4 5 6 9 10 8 4 3 2 5 8 6 2 3 3 3 4 4 4 3 5 9 10 7 8 15 17 11 7 6 7 8 6 8 12 12 10 9 8 5 6 8 8 8 10
30 32 33 34 35 35 35 33 29 25 22 20 18 16 15 12 8 6 3 2 2 2 1 4 7 5 2 2 3 6 6 6 5 6 7 8 8 9 10 9 8 10 10 5 7 11 12 13 6 2 2 1 4 5 5 5 3 0 5 4 1 2 1 5 9 9 8 8 14 17 10 8 7 8 9 8 10 13 12 10 8 8 7 6 6 6 5 7
31 32 33 34 35 35 36 34 30 27 23 21 19 17 15 10 6 3 1 1 1 1 1 3 4 2 2 1 7 7 8 10 7 7 7 6 6 7 10 10 9 10 11 10 10 14 16 17 7 2 3 1 2 3 4 6 4 1 3 3 2 5 2 4 7 8 11 8 8 11 6 5 7 8 8 9 12 14 11 9 7 7 7 6 6 5 4 5
31 32 33 34 35 36 36 34 32 28 25 22 19 17 14 8 3 1 0 1 2 1 0 2 1 1 2 4 7 4 10 13 10 9 7 7 8 8 11 12 11 13 14 15 17 18 21 18 7 2 2 1 2 4 6 6 2 1 2 3 3 1 5 3 5 11 11 2 4 12 6 5 7 7 7 7 13 15 10 8 7 7 7 7 6 6 5 3
32 32 33 34 35 35 36 35 32 29 26 23 21 18 11 4 2 2 1 0 1 1 1 1 1 0 1 5 5 0 10 14 14 12 7 10 13 8 11 14 12 14 15 17 19 19 20 14 4 0 2 1 2 4 6 4 3 1 3 2 2 2 5 3 1 11 13 3 6 14 7 5 7 8 8 7 11 14 11 8 7 8 7 7 6 6 6 6
32 33 33 34 35 35 35 35 32 30 27 25 23 16 6 1 3 3 2 0 1 1 2 1 0 1 1 3 3 1 7 11 13 15 10 11 15 12 13 14 12 13 15 17 17 16 13 7 1 2 1 3 4 3 4 4 5 4 3 3 1 3 3 2 4 6 15 6 3 10 8 5 6 8 8 8 12 13 11 9 8 8 7 7 6 6 6 7
32 33 33 33 34 34 34 34 32 30 27 26 23 11 1 2 3 3 2 0 2 1 3 1 3 0 2 4 4 2 6 8 11 16 16 14 17 17 13 8 9 12 13 14 12 9 4 1 1 1 2 2 2 4 5 4 4 4 0 3 3 4 2 4 3 3 9 9 6 8 9 7 6 8 9 10 12 12 11 9 8 7 6 6 5 6 6 7
32 33 33 33 34 33 33 33 32 30 26 25 20 8 3 3 4 2 1 2 2 0 2 4 3 2 2 5 3 3 6 11 13 14 17 17 17 18 14 7 7 6 4 5 6 3 1 2 1 2 4 4 2 4 2 4 4 2 3 3 3 5 4 5 6 2 8 13 10 10 9 9 8 9 10 10 12 13 10 9 7 6 7 6 5 6 5 6
33 33 33 33 33 33 33 32 32 29 24 23 17 6 6 4 2 2 3 3 2 1 2 2 2 2 2 5 4 3 7 13 14 13 15 17 16 16 15 9 6 4 2 1 3 1 2 2 3 2 3 4 4 4 7 11 7 6 6 4 5 6 4 4 8 7 11 12 9 12 11 10 10 9 10 10 11 13 10 8 7 6 6 6 5 5 5 6
33 33 33 33 32 32 32 31 31 27 20 20 17 5 4 4 2 1 1 2 4 5 3 4 5 2 5 3 3 5 9 10 8 11 15 17 13 10 8 5 3 3 3 3 2 2 3 1 3 4 7 7 8 8 10 12 5 5 2 4 5 6 4 5 9 8 11 11 5 11 14 11 11 10 10 11 11 12 10 8 7 6 6 6 6 5 5 5
32 32 32 32 32 32 31 31 30 23 16 17 15 4 2 3 2 2 4 4 7 8 9 11 9 7 10 6 8 9 6 4 3 7 13 14 8 3 3 2 3 3 4 4 2 1 4 3 7 9 11 10 10 10 7 4 3 5 6 7 4 4 2 2 8 9 7 8 5 8 12 9 8 9 9 11 12 10 10 10 9 8 7 6 7 6 5 3
31 32 32 31 32 31 30 32 25 17 14 13 11 4 1 2 1 2 2 4 8 7 9 12 8 9 13 11 13 13 5 1 4 6 9 8 4 2 3 1 3 4 2 2 2 2 1 4 10 13 12 10 9 6 2 6 8 7 6 7 4 4 2 4 3 5 3 5 4 6 10 6 4 6 7 8 10 8 8 10 10 10 8 6 6 5 5 4
31 32 32 30 32 30 30 29 17 14 16 9 6 5 3 4 4 5 0 1 7 6 5 8 5 6 8 9 11 12 5 4 4 6 8 6 4 4 2 1 4 4 1 4 5 3 2 7 12 11 8 4 3 4 7 7 6 6 6 7 3 2 4 2 2 3 4 5 7 8 7 4 4 4 3 4 8 8 7 9 9 9 9 7 7 6 5 4
30 32 31 30 32 28 30 24 10 15 17 3 3 8 8 8 6 5 1 1 5 6 6 8 5 4 7 7 10 11 4 4 4 6 10 8 4 3 3 3 3 4 4 5 7 6 6 8 7 3 1 4 5 6 7 6 5 5 5 5 5 4 5 4 3 3 7 6 9 11 7 3 2 4 4 3 7 8 8 9 7 6 7 7 6 6 6 5
30 31 30 31 30 29 29 16 7 20 17 1 4 11 11 9 7 4 2 1 4 5 5 5 3 4 7 7 10 10 4 3 5 6 10 11 7 3 2 3 3 5 9 7 6 6 7 7 2 3 4 5 7 5 3 5 4 4 0 3 5 4 4 4 5 5 7 3 5 7 6 1 3 3 6 5 6 7 7 7 7 6 6 6 7 7 6 6
31 30 30 30 30 31 25 7 9 24 14 1 7 16 13 8 8 4 3 3 3 3 1 2 1 5 7 6 7 5 4 3 8 9 11 12 10 5 2 2 1 5 6 4 3 3 4 3 2 4 5 7 7 4 1 4 6 3 2 5 5 4 3 4 5 5 4 4 7 4 5 3 3 3 6 7 7 7 5 7 8 6 6 6 7 7 7 6
31 30 30 29 28 31 18 5 14 20 6 2 12 18 13 8 9 4 3 4 4 4 3 1 0 5 7 5 7 6 2 5 4 7 11 11 8 4 3 4 2 3 2 2 1 2 3 1 4 6 7 6 5 3 2 4 7 1 4 4 4 3 2 1 4 4 2 4 3 2 5 5 4 4 5 7 9 7 6 7 8 7 8 8 8 7 7 7
30 29 30 27 27 26 13 7 15 11 3 9 15 18 15 10 8 2 4 3 3 2 3 2 1 4 4 3 8 5 5 4 3 5 6 8 7 3 2 5 2 5 4 5 1 5 3 4 4 7 6 3 2 2 4 4 5 5 5 2 3 2 2 2 2 2 1 3 0 2 4 4 3 3 3 6 8 7 8 10 9 9 9 8 8 8 7 8
30 29 29 27 26 21 11 12 13 6 7 15 15 19 17 9 4 3 4 1 2 1 1 1 0 3 1 2 5 3 3 1 3 5 2 3 5 3 3 6 4 4 6 5 5 4 2 5 7 8 5 3 3 5 5 6 2 5 0 5 5 4 3 4 0 1 3 3 3 7 5 4 3 4 5 5 6 9 9 9 9 8 8 8 8 8 7 6
30 28 27 28 26 18 14 17 13 6 12 17 17 20 13 4 3 5 2 2 3 2 1 1 1 3 4 4 3 4 3 2 2 2 1 0 1 1 2 3 2 1 4 1 3 3 3 2 2 4 4 5 4 3 3 4 2 1 6 6 6 6 5 4 1 4 4 2 6 8 8 6 2 4 6 6 5 10 11 7 7 7 7 7 7 7 7 6
29 27 26 26 25 19 13 12 10 10 15 17 18 16 6 2 4 5 2 4 2 2 1 2 3 3 7 7 3 4 5 3 2 3 1 1 2 2 2 3 3 3 4 4 2 2 3 4 1 1 2 4 4 2 3 3 3 5 5 4 4 5 5 5 4 5 3 4 6 4 5 6 3 4 8 9 4 10 14 10 10 10 8 8 7 6 7 6
28 26 25 23 22 19 13 11 13 15 15 15 15 8 4 4 1 2 3 3 1 3 4 4 5 3 7 7 3 4 5 3 4 4 4 3 1 2 2 3 2 2 3 3 2 3 3 2 2 1 2 4 6 3 6 6 6 6 5 5 5 4 4 4 4 2 1 6 4 1 3 2 3 4 6 10 7 9 12 10 12 13 11 9 7 6 6 5
28 26 24 21 19 20 19 18 16 13 13 14 10 3 5 4 2 4 3 2 2 5 3 3 5 5 6 5 3 5 5 4 5 4 4 4 3 4 5 5 6 5 2 3 1 1 3 6 4 3 3 2 7 3 2 3 3 4 3 4 5 2 3 2 3 2 2 5 4 2 3 1 3 3 4 6 9 9 8 9 11 12 11 9 7 7 6 5
28 25 24 21 20 21 20 16 11 9 12 10 5 4 4 2 4 4 3 3 4 3 1 4 8 6 5 5 5 5 4 3 6 6 4 4 4 3 4 5 6 6 3 2 2 3 3 3 3 2 2 1 4 4 6 4 0 1 2 5 5 4 4 2 3 2 2 5 5 5 3 1 1 4 6 2 8 8 9 9 9 9 9 8 7 6 6 5
27 24 23 20 19 18 13 8 6 5 5 4 5 4 3 3 4 2 3 4 3 2 2 3 7 6 5 6 5 5 5 4 7 6 4 5 5 5 4 5 6 5 4 2 2 2 5 4 6 2 3 5 5 4 5 6 2 2 2 5 2 4 5 3 3 5 3 2 3 3 2 1 1 3 6 4 10 9 10 10 9 8 7 8 8 6 6 6
28 24 18 15 16 14 9 5 4 4 2 4 6 2 3 4 4 2 3 4 2 2 4 3 2 3 4 4 3 4 4 4 6 5 3 4 5 6 6 5 6 7 6 4 2 1 4 2 5 1 2 4 7 4 4 5 1 1 3 1 3 4 6 4 2 1 3 2 2 1 2 2 2 4 6 5 10 9 9 10 9 8 9 9 7 6 6 6
30 23 14 13 14 11 7 5 5 5 3 6 4 2 4 4 4 3 2 5 4 1 5 4 1 1 2 2 2 4 2 3 6 5 3 4 4 5 6 3 3 9 9 5 2 2 5 1 5 2 3 4 3 5 4 2 5 4 0 3 3 2 4 4 1 3 4 2 3 1 3 3 1 1 2 4 9 8 9 10 8 7 10 10 7 7 7 6
26 17 11 11 5 3 6 7 6 4 4 5 1 3 3 4 3 2 4 7 4 3 5 0 2 0 0 1 3 4 2 4 6 6 3 3 4 4 6 3 2 3 8 6 2 1 5 2 6 2 6 3 3 7 3 5 2 5 3 3 3 2 1 2 2 1 1 1 3 2 1 4 3 4 6 8 11 11 10 8 8 9 10 10 8 8 7 6
14 7 6 3 8 11 10 9 5 4 5 1 2 3 3 4 6 5 7 8 4 3 2 1 0 2 2 1 2 4 2 4 7 5 3 3 4 4 4 4 1 1 4 6 5 1 3 5 3 4 4 2 5 4 0 5 4 3 2 2 2 3 3 1 2 3 3 2 2 1 1 3 4 6 10 12 13 13 11 8 9 10 11 10 9 8 7 7
5 2 4 3 11 11 8 6 3 5 3 2 3 2 3 4 6 6 7 7 3 1 1 1 1 2 2 1 1 2 2 2 4 3 2 4 3 3 2 2 4 2 1 6 6 2 3 5 2 4 3 3 2 2 4 5 2 2 3 2 2 1 1 1 1 2 4 3 2 2 2 5 5 5 10 13 12 12 12 10 9 10 11 10 10 9 7 7
3 2 4 3 8 3 3 3 3 2 2 3 3 3 4 4 5 7 9 7 3 1 2 1 1 2 2 2 1 1 2 2 2 1 2 3 4 1 3 2 5 5 3 6 5 2 2 3 4 0 1 2 3 6 6 8 6 5 3 2 2 1 3 2 3 3 2 4 4 4 3 6 5 4 9 11 10 10 11 11 10 10 11 10 9 8 7 7
0 1 5 2 5 6 1 3 1 1 2 3 3 4 5 4 4 6 7 4 1 1 0 0 2 3 3 3 2 1 1 2 3 0 0 1 3 0 3 1 5 5 5 4 1 1 3 4 4 2 3 4 6 5 4 7 7 6 3 2 4 3 5 5 4 4 0 1 1 3 1 6 6 4 7 9 10 10 10 11 11 9 10 10 8 7 7 7
1 4 11 11 9 6 4 1 4 2 2 4 4 5 6 5 4 5 5 2 1 1 0 1 2 2 3 2 1 1 1 1 2 1 1 2 2 3 5 4 7 6 5 2 0 2 2 4 4 1 4 3 5 4 3 3 4 5 1 1 4 3 3 5 5 3 3 1 1 2 2 6 6 3 6 8 9 9 8 10 11 9 8 8 9 8 7 6
2 5 9 13 10 3 3 2 3 3 4 4 4 6 6 6 6 7 6 2 1 0 1 2 2 2 4 2 1 3 3 2 3 3 1 2 3 5 7 8 8 5 3 2 3 2 2 2 4 3 3 5 6 6 5 5 3 2 3 3 2 4 5 3 2 3 1 4 5 4 3 6 5 2 5 6 7 8 7 8 10 10 8 8 8 7 7 6
5 3 4 10 9 2 3 4 3 3 4 3 5 8 6 5 5 7 7 4 2 2 1 2 3 2 3 2 1 2 2 5 1 4 3 2 1 3 6 8 7 5 2 3 5 4 3 3 4 5 4 2 2 3 3 2 1 1 3 4 1 4 7 3 2 4 1 4 6 5 5 6 5 2 5 6 7 8 7 6 7 8 9 8 8 6 6 6
3 2 3 6 6 3 0 1 2 1 3 4 5 6 5 4 4 6 6 5 3 2 2 2 2 3 3 4 4 3 2 2 3 1 1 1 0 1 3 6 6 5 5 7 7 4 4 3 3 6 7 7 7 7 5 2 2 2 4 5 5 4 6 5 3 2 4 4 3 5 6 4 4 7 10 9 8 9 8 8 8 7 8 7 7 6 6 6
2 2 3 4 4 4 4 4 5 4 4 4 3 5 5 4 4 5 4 2 1 0 0 1 0 1 1 2 3 3 4 4 2 2 2 2 1 1 1 4 4 5 7 7 5 4 5 1 1 6 6 7 8 7 5 2 3 5 5 5 8 7 4 6 4 5 5 5 4 8 6 6 7 11 14 12 10 10 9 9 9 8 8 7 6 6 6 5
2 2 3 4 2 2 3 5 5 6 7 6 3 4 5 5 4 3 3 4 4 2 1 3 2 2 4 2 2 2 3 5 4 0 1 1 2 2 3 4 3 3 5 5 3 5 6 1 3 5 3 5 6 5 4 2 3 4 4 6 9 8 5 5 7 7 7 6 8 9 9 10 10 11 14 14 12 11 10 9 8 8 8 7 7 6 5 5
3 2 3 5 3 2 4 7 7 6 7 6 3 3 3 4 5 4 2 3 5 4 2 3 3 5 5 1 3 2 2 1 3 3 1 2 1 2 2 2 3 3 4 4 2 2 5 2 4 4 0 3 3 3 2 1 3 4 6 8 10 10 9 7 7 7 9 9 10 9 9 11 10 8 10 8 8 8 7 7 8 9 9 8 7 7 6 6
3 3 4 4 4 4 5 6 5 5 5 5 3 4 5 4 5 5 3 2 2 4 2 3 6 6 6 3 4 1 3 2 3 5 4 4 1 1 2 2 1 1 2 3 1 2 2 3 4 3 3 5 5 3 3 3 3 4 7 8 9 9 8 6 5 5 7 8 8 5 5 8 7 4 4 6 9 9 8 9 8 8 8 8 7 7 7 7
8 8 6 3 4 4 4 5 5 4 4 4 5 6 7 8 9 9 5 2 2 2 2 5 7 5 3 5 6 2 3 2 1 5 5 6 6 4 3 3 5 3 1 2 1 1 2 2 0 5 3 4 5 4 5 6 6 5 6 6 7 7 5 5 5 3 5 5 2 2 3 6 4 2 6 8 10 11 10 9 7 7 7 8 8 8 7 8
14 11 8 3 3 4 4 5 5 3 3 5 8 8 7 9 13 13 7 5 3 1 2 4 4 1 4 7 3 2 3 2 1 5 5 3 5 4 3 4 6 6 3 2 2 2 4 4 2 3 3 4 5 1 2 4 5 5 6 4 5 6 6 7 5 1 3 3 5 4 5 5 4 7 9 9 10 10 9 8 8 8 8 8 9 9 8 9
Wind_Direction
357 357 356 355 354 353 351 349 347 344 343 342 340 339 336 335 332 329 326 320 316 310 305 301 300 305 311 315 314 312 312 312 306 272 239 244 238 223 221 236 265 290 298 303 304 303 317 310 297 312 312 271 221 233 238 207 125 65 80 129 283 265 269 248 186 190 114 89 80 86 97 108 115 117 104 76 70 77 71 62 74 67 88 117 129 138 144 149
357 357 356 355 354 352 351 349 347 344 342 340 338 337 337 336 333 330 325 319 315 308 303 298 298 306 312 315 312 315 319 317 314 276 252 249 238 225 220 230 253 277 289 297 302 307 316 290 313 341 337 285 235 227 252 233 131 124 115 105 234 224 253 237 173 163 111 101 88 87 93 99 112 130 122 96 94 95 85 70 80 87 97 112 127 137 142 147
357 357 356 355 354 352 351 348 347 343 339 336 335 336 337 336 333 330 325 320 315 309 305 300 302 309 312 314 313 321 326 328 318 274 266 258 232 225 222 232 247 270 283 286 289 277 265 284 319 337 320 288 262 309 318 302 137 158 124 119 238 223 237 317 65 81 98 103 86 85 90 88 92 93 100 112 110 103 107 110 101 110 123 125 131 135 140 143
356 356 355 354 354 353 350 348 346 341 336 332 332 334 335 334 333 330 326 321 317 313 309 306 307 310 312 320 328 323 329 349 285 251 283 279 234 221 218 228 240 258 275 278 271 268 279 300 317 316 300 293 304 2 319 254 183 140 121 160 227 200 104 317 359 74 95 102 91 89 85 84 83 78 100 118 108 98 126 137 133 136 139 135 137 138 141 141
356 355 355 355 354 353 351 349 345 341 335 330 329 331 332 332 331 329 325 321 320 320 318 316 314 322 321 324 2 330 347 22 267 264 308 300 250 214 209 217 230 248 267 276 269 280 303 314 325 344 348 304 328 353 282 247 158 104 196 185 194 129 107 305 61 90 100 101 96 90 87 97 97 75 82 103 110 160 160 146 143 145 146 143 144 145 143 140
355 354 354 354 354 353 351 349 345 342 336 330 329 329 331 330 329 328 324 322 326 329 329 331 335 27 101 104 48 3 89 219 274 306 319 308 237 195 196 208 222 246 261 267 277 308 334 1 4 351 348 313 307 288 273 275 106 96 296 199 152 124 118 191 91 97 101 97 97 97 99 110 93 69 52 69 79 173 150 144 146 145 144 144 146 147 144 144
354 353 354 354 354 353 352 349 346 342 338 333 331 330 330 329 329 326 321 326 333 334 338 344 350 141 136 108 71 60 95 261 274 310 310 281 174 178 184 205 217 240 248 254 273 321 353 12 351 318 282 294 269 243 256 280 72 95 17 7 88 115 114 113 102 104 107 105 109 110 105 93 87 78 47 46 33 116 134 139 142 139 139 142 145 147 144 147
353 353 353 353 353 353 352 349 345 342 338 336 333 332 332 330 328 323 322 331 333 338 339 334 325 159 147 128 99 46 45 256 263 282 275 215 183 182 185 202 213 225 225 229 231 144 27 339 291 274 281 278 238 263 302 8 26 83 115 278 95 116 124 116 107 111 110 110 111 100 91 88 93 90 70 47 35 112 135 137 136 134 138 145 147 146 144 147
352 352 352 352 352 352 351 349 346 343 340 337 335 335 335 333 328 323 326 333 337 350 347 340 190 160 148 147 116 39 262 247 251 262 254 219 200 193 191 197 200 204 207 230 236 60 20 309 274 275 282 280 325 327 0 37 336 177 173 191 133 143 151 135 123 121 117 114 108 98 96 106 112 96 68 47 51 110 132 131 134 136 143 151 147 147 146 150
351 351 351 351 351 351 351 349 348 345 342 339 337 339 339 336 330 325 330 337 347 355 353 20 172 158 146 154 111 92 252 237 219 224 228 213 203 193 190 190 193 195 203 246 249 120 202 242 270 273 267 281 352 341 5 73 228 201 181 153 140 172 165 137 122 118 114 111 108 106 111 112 105 93 78 50 69 102 117 119 126 131 144 149 147 152 152 156
350 350 350 350 350 350 350 350 349 346 343 341 340 342 341 338 332 328 337 342 352 356 2 112 146 141 123 66 121 194 232 203 199 211 206 195 192 188 184 185 191 197 209 262 271 237 236 249 262 283 270 302 353 332 331 288 230 181 149 116 145 186 157 109 112 119 108 104 113 111 105 83 57 84 103 94 83 98 108 106 103 103 108 121 137 150 153 160
349 349 349 349 349 349 350 350 350 348 346 344 344 344 341 338 332 326 336 340 347 6 41 139 145 137 77 54 201 228 206 186 183 184 187 181 186 190 184 191 198 208 216 226 265 264 265 264 268 6 252 296 359 323 318 315 311 44 122 132 212 5 82 132 123 131 121 123 128 111 86 67 79 98 109 108 92 90 97 96 94 96 88 89 111 122 131 154
348 348 348 347 347 349 350 351 351 349 347 346 345 344 339 333 325 316 311 331 326 329 45 131 153 141 65 188 246 242 192 187 167 163 179 169 186 198 193 205 214 230 234 226 257 278 276 273 286 319 249 32 341 269 314 329 321 321 82 105 28 12 308 167 129 132 124 139 139 105 85 79 96 112 116 115 102 91 87 88 90 90 86 83 91 86 88 145
348 347 347 346 346 348 349 351 351 348 346 345 346 342 332 319 303 277 199 339 344 306 61 118 143 83 94 241 278 270 195 194 171 166 175 177 200 212 207 212 223 239 246 242 257 274 273 280 314 341 282 99 247 298 337 332 300 193 78 41 65 89 269 254 153 140 118 165 117 93 106 135 124 125 126 122 106 101 94 86 80 72 74 74 75 74 64 97
347 347 346 346 345 347 349 350 350 347 344 344 345 338 324 298 232 179 162 335 5 289 221 182 227 280 333 278 295 3 178 187 183 182 180 197 208 219 221 218 226 238 246 249 256 266 272 289 337 44 283 339 37 359 343 328 327 68 131 309 16 160 260 316 158 135 125 183 114 101 109 140 141 140 136 126 106 105 102 93 85 76 74 74 73 76 73 71
346 346 345 345 344 345 347 349 350 346 342 344 345 337 321 236 184 167 171 209 357 263 192 124 226 192 321 307 317 32 171 183 197 196 194 211 211 220 232 227 236 247 249 251 255 264 276 295 280 181 288 350 52 56 7 2 338 356 137 217 199 168 254 25 37 114 135 156 68 101 123 138 148 148 142 126 111 108 106 102 96 88 79 76 76 72 74 74
346 346 345 344 343 344 346 349 348 344 342 345 348 343 298 170 172 168 179 52 15 244 198 304 358 77 252 305 322 277 205 204 211 201 201 217 219 225 233 229 236 243 247 253 258 268 292 333 252 336 19 8 70 91 31 355 296 317 233 218 209 165 191 126 76 35 122 114 69 91 114 130 142 138 135 127 117 111 109 110 104 99 88 77 77 70 70 68
346 345 344 343 341 342 345 347 346 342 341 347 356 19 84 122 157 152 146 104 60 212 268 290 334 38 278 272 258 220 204 208 214 208 206 213 220 230 233 228 225 225 249 266 265 261 331 356 15 6 347 354 16 108 108 248 223 216 214 219 207 163 165 152 138 131 109 105 105 101 102 120 123 119 124 127 122 114 113 117 112 105 95 87 81 75 76 73
345 345 344 342 341 341 343 346 345 341 341 349 358 39 79 77 131 129 134 120 110 225 313 236 186 37 298 235 221 230 204 197 206 213 213 211 215 227 230 233 225 181 135 259 290 252 156 353 26 32 300 288 264 181 191 237 216 186 213 190 160 151 166 147 129 144 123 109 119 122 124 136 133 127 127 129 123 116 118 118 112 109 101 96 88 79 82 84
345 345 344 342 341 339 341 345 343 338 342 351 353 14 71 33 17 4 211 178 211 234 267 225 203 271 295 260 194 213 206 192 197 209 212 211 206 213 221 220 191 165 168 171 263 293 130 162 278 236 235 235 248 233 219 239 220 164 151 105 125 126 157 144 125 151 130 111 145 139 135 144 142 138 134 132 121 118 125 123 119 118 113 105 99 94 88 85
345 345 344 342 339 337 340 343 341 339 344 352 357 25 105 12 11 323 303 274 252 238 249 250 224 232 268 255 171 166 171 184 230 228 218 215 194 180 236 193 144 208 228 181 181 353 103 174 243 237 238 237 238 236 229 256 43 78 96 99 92 91 124 111 124 168 141 109 172 148 128 136 143 142 140 135 126 130 138 132 133 126 119 117 109 109 101 88
344 344 343 341 339 336 338 341 342 352 357 356 7 43 162 343 339 292 301 304 288 250 245 257 238 235 252 236 182 157 117 174 250 269 233 212 164 159 257 179 162 226 236 117 78 354 56 228 243 241 243 244 242 246 3 30 44 55 81 99 83 61 38 354 84 166 128 99 164 135 115 120 131 135 140 136 127 134 138 129 135 130 124 131 123 124 123 102
342 343 343 341 339 335 337 342 347 6 5 0 9 10 352 348 332 320 325 281 296 273 247 248 228 223 229 222 186 155 132 187 206 258 227 185 155 176 202 182 214 251 198 142 159 188 230 237 236 234 226 209 278 343 44 45 45 59 74 101 115 100 103 335 310 128 81 92 130 114 99 89 86 98 90 110 120 120 123 121 126 131 133 143 139 134 132 113
339 341 342 340 339 335 336 340 352 6 1 4 26 8 2 347 330 336 47 183 290 276 249 229 212 210 200 196 177 158 167 198 181 236 210 176 159 171 180 192 215 271 258 205 170 176 230 241 214 186 109 100 61 24 55 73 54 63 92 128 148 163 157 179 198 110 61 70 117 109 79 33 67 119 103 95 116 119 126 127 123 131 135 134 128 122 125 125
337 339 339 340 340 335 335 339 359 355 349 131 35 4 358 340 330 349 66 61 294 283 264 229 213 232 209 168 169 167 159 211 218 218 190 177 170 154 198 199 183 246 258 240 165 166 231 249 170 89 27 63 83 57 69 111 90 48 72 167 146 157 167 150 132 103 70 78 163 122 92 321 287 151 144 134 129 133 138 136 133 135 132 126 125 125 129 130
335 336 337 339 338 337 338 344 345 342 339 118 1 349 347 337 338 353 96 57 305 272 231 197 166 208 205 163 164 142 91 248 242 202 184 190 183 157 213 261 240 233 249 239 167 150 227 254 77 86 60 65 81 59 26 121 97 42 242 175 139 111 100 110 113 107 111 182 211 162 114 171 238 199 171 154 143 148 147 140 142 143 139 139 139 138 140 135
331 333 335 335 337 340 340 308 325 333 329 308 331 337 344 342 338 339 102 42 306 238 173 216 290 184 195 173 142 110 139 245 246 192 190 195 186 138 205 255 315 260 272 75 48 269 202 146 64 80 74 73 75 49 257 120 97 254 242 155 110 80 75 116 113 113 172 171 175 131 101 125 194 216 192 155 140 148 154 150 153 155 152 149 146 146 146 144
328 330 332 331 334 337 328 298 320 323 284 312 322 331 338 335 330 351 101 51 278 235 178 226 267 179 201 146 135 138 220 207 129 217 212 187 188 109 183 232 217 257 280 97 172 266 200 160 140 109 85 88 110 195 212 112 94 242 243 69 27 18 347 328 73 91 52 92 94 253 106 104 225 221 165 155 146 157 172 167 165 164 162 157 150 152 149 147
325 327 329 327 329 332 324 309 308 288 303 322 325 326 329 330 345 70 83 83 234 259 205 191 69 189 190 107 154 198 250 147 149 228 231 172 204 131 166 224 193 243 269 141 166 252 203 185 172 127 104 162 202 219 188 121 146 248 79 51 22 18 351 329 249 131 45 56 235 223 150 112 236 198 161 180 176 177 181 173 172 169 163 161 152 154 152 149
323 324 326 324 325 327 319 306 296 293 321 324 324 322 324 341 53 68 57 247 229 256 213 116 214 184 145 132 194 218 210 225 195 181 96 162 244 104 179 231 130 136 300 73 140 218 240 236 158 113 133 176 190 230 187 134 178 24 48 41 25 16 6 6 47 90 65 311 257 217 172 140 190 211 188 200 191 173 171 166 174 167 156 161 154 153 156 155
322 322 323 320 319 317 308 298 302 318 318 319 323 326 345 56 69 96 194 234 231 246 171 188 223 167 152 165 196 210 199 223 191 138 168 259 12 1 332 346 24 35 359 350 342 290 333 9 24 121 143 127 85 2 344 33 65 72 63 53 35 356 2 18 1 43 89 262 277 233 169 134 162 227 215 216 188 158 167 168 169 165 159 164 157 153 155 155
323 321 318 314 311 300 278 280 307 316 311 318 329 340 73 64 43 155 234 269 278 219 195 196 217 187 173 178 195 211 192 204 205 167 168 178 157 203 205 202 179 53 343 292 302 316 330 320 273 357 45 84 82 25 338 5 37 58 65 65 55 359 8 15 329 11 192 247 266 135 107 111 216 236 230 218 186 165 174 167 161 161 160 164 158 153 155 151
323 321 315 310 304 289 279 290 306 310 308 319 338 28 86 80 215 219 238 281 255 221 188 167 199 192 163 161 218 220 195 205 214 191 170 162 166 216 234 217 170 139 213 227 141 35 335 316 323 35 358 42 101 101 333 344 10 38 76 100 93 77 57 353 289 340 293 263 283 10 73 45 267 305 301 215 172 163 161 148 154 157 157 162 154 147 147 134
324 322 316 308 296 286 285 295 301 297 306 323 20 68 82 128 234 242 229 249 249 231 189 169 189 184 162 182 217 194 170 224 207 181 171 150 151 217 262 255 194 157 159 164 144 148 136 291 279 150 232 246 114 155 164 146 312 292 154 128 122 142 144 196 232 197 255 267 305 346 46 96 234 305 311 188 140 136 136 136 144 148 150 148 136 135 134 124
325 322 318 306 291 284 281 284 289 279 296 2 60 76 127 202 251 261 236 259 283 303 307 196 176 172 189 217 240 187 163 211 209 179 172 174 175 193 205 234 211 160 127 153 226 151 130 223 251 196 175 157 147 200 154 107 21 282 101 86 110 173 151 153 192 181 197 275 322 352 34 310 206 339 339 85 117 120 129 134 136 137 136 131 129 135 135 136
327 327 323 301 284 280 269 263 268 229 174 68 62 89 180 219 239 212 233 274 307 326 348 0 132 157 202 228 274 237 181 168 187 180 191 205 207 199 196 232 210 158 140 153 196 105 97 249 267 51 65 179 167 168 123 111 167 291 29 55 213 170 128 124 254 300 67 63 313 18 91 332 9 14 353 82 113 118 133 142 141 137 136 135 138 146 145 153
331 333 321 289 281 273 252 247 236 204 127 77 94 191 229 241 232 211 263 294 291 62 51 13 320 144 200 232 278 255 205 143 180 192 218 226 237 219 193 230 214 168 165 157 168 175 130 207 274 118 134 245 184 108 78 104 138 118 276 225 197 87 79 101 120 357 40 72 289 349 144 205 156 92 298 122 125 141 155 151 138 134 140 143 149 156 159 169
328 326 304 282 269 185 180 182 186 161 80 69 146 222 239 252 247 246 298 293 292 70 77 28 257 144 166 315 320 282 214 166 193 203 209 213 247 236 172 171 341 169 174 149 118 168 125 138 285 228 164 233 12 69 32 326 48 121 181 185 114 93 351 38 111 98 54 273 297 346 169 212 190 174 191 173 161 167 172 159 141 144 150 150 159 167 170 175
325 325 307 257 139 134 150 163 161 77 61 66 224 221 230 260 269 283 298 292 304 47 72 185 280 345 341 38 346 302 242 184 199 201 184 189 237 259 184 159 37 277 183 125 121 187 103 111 271 270 180 130 24 49 231 292 326 45 59 30 63 148 166 170 155 147 152 213 272 307 206 241 230 196 185 186 180 173 173 168 155 157 161 160 165 170 175 179
344 359 296 202 141 146 157 147 88 61 80 211 216 231 266 281 279 286 291 283 287 45 196 162 43 339 306 345 351 311 292 222 215 211 191 181 196 263 266 146 122 165 135 83 104 126 60 95 169 292 330 68 67 245 201 196 211 50 51 22 354 11 97 157 248 129 137 150 179 173 228 259 252 197 185 190 186 174 170 166 162 165 167 167 170 171 175 179
350 346 265 144 108 142 170 95 56 106 159 246 231 243 274 272 276 291 288 277 258 204 181 155 290 226 229 276 287 306 323 303 279 254 228 197 161 184 274 208 143 145 96 62 71 92 81 111 134 226 338 122 207 234 189 166 160 140 141 166 178 146 92 113 290 305 106 135 161 159 219 263 259 191 185 188 180 176 171 160 161 169 168 170 175 173 172 175
273 319 248 203 14 341 47 101 287 196 181 244 237 250 270 263 262 280 283 281 246 234 209 174 252 231 226 234 217 82 31 311 288 340 5 229 132 136 290 176 127 116 101 87 60 124 124 112 112 162 205 190 240 254 161 155 151 134 148 181 160 138 114 138 231 261 330 37 133 121 173 266 261 195 178 180 176 176 169 157 157 166 170 171 174 174 176 181
143 296 278 283 309 338 77 106 298 304 238 251 254 258 265 269 273 273 278 292 273 268 304 213 228 229 238 222 157 101 94 314 303 16 45 359 36 344 329 60 91 78 74 95 304 6 56 84 92 334 308 305 305 332 47 76 91 97 343 210 148 156 144 156 185 172 149 195 126 93 247 267 274 208 169 174 172 166 164 157 153 157 167 168 167 173 183 184
308 279 280 298 311 352 106 202 259 268 274 288 289 282 277 267 262 263 267 263 206 168 38 280 256 227 242 232 169 211 177 127 322 333 59 56 20 357 6 43 69 65 59 159 165 96 67 94 93 66 357 337 337 349 357 350 24 75 282 274 164 128 112 122 129 92 101 212 155 132 232 256 273 198 159 173 169 161 169 164 153 153 159 163 167 174 181 179
310 254 255 304 321 359 163 182 179 234 293 324 301 292 287 268 258 257 255 238 193 161 146 273 304 310 274 295 13 267 171 132 217 317 15 66 11 6 40 55 68 66 51 116 118 100 108 123 109 117 149 208 251 267 266 278 319 303 281 287 280 134 134 145 120 102 217 228 153 147 219 259 282 212 186 205 184 168 171 160 148 151 152 157 165 171 177 180
338 331 288 311 336 12 238 228 73 28 316 323 300 284 270 267 293 286 261 230 206 181 170 228 314 8 355 5 18 335 309 130 131 39 32 115 266 305 93 90 90 99 92 88 87 81 89 94 113 135 163 189 197 218 228 172 150 263 272 283 288 232 171 142 99 142 198 188 174 208 206 214 247 212 202 209 190 174 172 158 149 149 150 156 162 168 180 187
354 336 341 337 331 353 356 354 21 14 318 304 278 269 277 289 305 306 293 269 278 355 185 248 355 50 309 345 10 324 305 327 32 114 154 169 199 289 66 78 91 121 111 85 70 87 89 38 153 142 174 201 191 211 238 197 201 236 253 270 280 271 198 156 191 219 165 136 249 252 199 182 224 214 204 203 188 178 176 164 155 152 154 160 164 170 176 169
317 301 0 9 321 330 355 327 326 332 321 311 275 261 291 309 300 296 305 318 337 357 309 316 349 278 249 211 168 262 321 344 339 309 142 141 146 106 39 11 13 78 93 68 37 94 107 192 215 157 200 225 197 223 252 228 236 254 265 267 270 273 245 198 215 211 158 166 241 235 193 201 226 221 212 203 182 174 172 159 151 151 156 164 164 163 155 132
336 316 350 5 340 292 286 287 299 321 324 321 306 269 289 314 310 300 307 342 347 338 273 266 287 287 283 246 135 195 241 306 302 277 127 78 77 107 76 355 341 15 76 90 41 76 106 200 219 162 226 285 265 274 276 272 294 292 292 285 272 259 242 220 219 202 179 203 233 221 203 218 229 226 219 193 157 153 147 138 145 152 159 165 161 156 148 140
355 310 333 349 325 293 281 291 318 334 325 327 325 300 304 320 320 315 331 41 340 317 301 255 259 268 288 332 75 95 246 205 244 247 177 125 123 156 140 170 199 342 57 106 63 20 95 238 236 119 64 308 302 324 338 351 342 301 296 295 281 266 253 245 246 213 196 225 242 222 214 243 256 236 182 147 136 138 138 143 153 159 163 163 158 157 156 160
336 311 325 327 292 306 313 314 332 335 325 346 356 335 328 333 335 331 317 248 215 246 276 288 286 287 330 34 67 44 325 75 135 247 214 165 174 182 168 169 157 132 89 114 114 101 130 195 290 79 81 275 291 342 339 350 1 319 296 285 279 282 272 265 272 246 227 230 190 134 214 251 260 106 113 127 134 136 141 148 152 162 167 159 159 167 172 177
346 334 340 336 269 312 335 324 336 351 343 357 355 340 330 333 341 347 331 288 287 259 260 298 302 307 52 54 60 280 309 52 172 252 255 169 140 120 112 141 137 132 147 126 93 131 128 120 122 104 121 260 281 348 11 12 6 306 266 237 267 291 285 286 304 277 225 164 134 174 222 216 180 127 118 127 136 142 154 160 160 167 169 165 169 178 185 188